Location: Unspecified
(0.0000°N, 0.0000°E)
Time: 16:05:31
(UTC+00:00)

Hubble Space Telescope - Pass Details

Date: 12 December 2018
Orbit: 537 x 540 km, 28.5° (Epoch: 11 December)

Event Time Altitude Azimuth Distance (km) Brightness Sun altitude
Rises 18:55:38 0° 232° (SW) 2,675 6.0 -14.2°
Reaches altitude 10° 18:57:56 10° 226° (SW) 1,783 4.6 -14.7°
Maximum altitude 19:01:57 51° 150° (SSE) 675 1.2 -15.6°
Enters shadow 19:03:45 29° 89° (E) 1,001 1.6 -16.0°
